Weather History for Abilene Dyess, TX

Change the Weather History Date:

Tuesday, March 12, 2013

  Actual Average Record
Temperature  
Mean Temperature 56 °F -  
Max Temperature 68 °F 63 °F 91 °F (2006)
Min Temperature 39 °F 42 °F 24 °F (1998)
Degree Days  
Heating Degree Days 9    
Growing Degree Days 6 (Base 50)    
Moisture  
Dew Point 24 °F    
Average Humidity 29    
Maximum Humidity 52    
Minimum Humidity 20    
Precipitation  
Precipitation 0.00 in - - ()
Sea Level Pressure  
Sea Level Pressure 30.08 in    
Wind  
Wind Speed 13 mph (North)    
Max Wind Speed 21 mph    
Max Gust Speed 28 mph    
Visibility 10 miles    
Events      
Averages and records for this station are not official NWS values.
T = Trace of Precipitation, MM = Missing Value Source: NWS Daily Summary

Daily Weather History Graph

Daily Weather History Graph

Search for Another Location

Airport:

Trip Planner

Search our weather history database for the weather conditions in past years. The results will help you decide how hot, cold, wet, or windy it might be!

Date:

Astronomy

Mar. 12, 2013 Rise Set
Actual Time 7:53 AM CDT 7:45 PM CDT
Civil Twilight 7:28 AM CDT 8:09 PM CDT
Nautical Twilight 7:00 AM CDT 8:38 PM CDT
Astronomical Twilight 6:31 AM CDT 9:07 PM CDT
Moon 8:05 AM CDT (3/12) 8:55 PM CDT (3/12)
Length of Visible Light 12h 41m
Length of Day
11h 52m
New Moon, 1% of the Moon is Illuminated
Mar 12
New Moon
Mar 19
First Quarter
Mar 27
Full
Apr 2
Last Quarter
Apr 10
New

Hourly Weather History & Observations

Time (CDT) Temp. Windchill Dew Point Humidity Pressure Visibility Wind Dir Wind Speed Gust Speed Precip Events Conditions
12:58 AM 53.6 °F - 21.2 °F 28% 29.93 in 10.0 mi South 12.7 mph - N/A   Clear
1:58 AM 53.6 °F - 21.2 °F 28% 29.91 in 10.0 mi South 15.0 mph - N/A   Clear
2:58 AM 51.8 °F - 21.2 °F 30% 29.91 in 10.0 mi SSW 5.8 mph - N/A   Clear
3:58 AM 44.6 °F 40.2 °F 21.2 °F 39% 29.91 in 10.0 mi SSW 8.1 mph - N/A   Clear
4:58 AM 46.4 °F 44.3 °F 21.2 °F 37% 29.90 in 10.0 mi South 4.6 mph - N/A   Clear
5:58 AM 48.2 °F - 17.6 °F 30% 29.88 in 10.0 mi South 9.2 mph - N/A   Clear
6:58 AM 53.6 °F - 17.6 °F 24% 29.88 in 10.0 mi SW 13.8 mph 17.3 mph N/A   Clear
7:58 AM 55.4 °F - 17.6 °F 23% 29.93 in 10.0 mi SSW 15.0 mph - N/A   Clear
8:58 AM 57.2 °F - 21.2 °F 25% 29.98 in 10.0 mi WSW 12.7 mph - N/A   Clear
9:58 AM 60.8 °F - 19.4 °F 20% 30.03 in 10.0 mi West 17.3 mph 21.9 mph N/A   Clear
10:58 AM 55.4 °F - 24.8 °F 31% 30.08 in 10.0 mi NNW 20.7 mph - N/A   Clear
11:58 AM 55.4 °F - 26.6 °F 33% 30.12 in 10.0 mi NNW 18.4 mph 27.6 mph N/A   Clear
12:54 PM 55.4 °F - 26.6 °F 33% 30.16 in 10.0 mi NW 13.8 mph - N/A   Clear
12:58 PM 57.2 °F - 26.6 °F 31% 30.12 in 10.0 mi North 15.0 mph 19.6 mph N/A   Clear
1:58 PM 59.0 °F - 26.6 °F 29% 30.12 in 10.0 mi North 12.7 mph - N/A   Clear
2:58 PM 62.6 °F - 26.6 °F 26% 30.09 in 10.0 mi North 13.8 mph 21.9 mph N/A   Clear
2:59 PM 62.6 °F - 26.6 °F 26% 30.14 in 10.0 mi NNW 13.8 mph 21.9 mph N/A   Clear
3:19 PM 64.4 °F - 28.4 °F 26% 30.14 in 10.0 mi NNE 16.1 mph - N/A   Clear
3:58 PM 66.2 °F - 28.4 °F 24% 30.09 in 10.0 mi North 16.1 mph 20.7 mph N/A   Clear
4:16 PM 66.2 °F - 28.4 °F 24% 30.13 in 10.0 mi NE 13.8 mph - N/A   Clear
4:26 PM 66.2 °F - 26.6 °F 23% 30.13 in 10.0 mi North 15.0 mph - N/A   Clear
4:58 PM 66.2 °F - 26.6 °F 23% 30.09 in 10.0 mi NNE 11.5 mph 23.0 mph N/A   Clear
5:04 PM 68.0 °F - 28.4 °F 23% 30.14 in 10.0 mi ENE 15.0 mph 20.7 mph N/A   Clear
5:58 PM 68.0 °F - 26.6 °F 21% 30.10 in 10.0 mi NNE 15.0 mph 21.9 mph N/A   Clear
6:58 PM 64.2 °F - 26.1 °F 24% 30.13 in 10.0 mi NE 15.0 mph - N/A   Clear
7:58 PM 58.6 °F - 24.1 °F 27% 30.17 in 10.0 mi NNE 12.7 mph - N/A   Clear
8:58 PM 55.4 °F - 23.9 °F 30% 30.22 in 10.0 mi NE 13.8 mph - N/A   Clear
9:58 PM 52.7 °F - 23.2 °F 32% 30.25 in 10.0 mi NE 9.2 mph - N/A   Clear
10:58 PM 49.1 °F - 23.5 °F 37% 30.31 in 10.0 mi NE 5.8 mph - N/A   Clear
11:56 PM 39.2 °F 35.9 °F 23.0 °F 52% 30.34 in 10.0 mi NNE 4.6 mph - N/A   Clear